Location: Castifao
(42.5040°N, 9.1124°E)
Time: 21:36:54
(UTC+00:00)

Cosmos 1727 Rocket - Pass Details

Date: 23 January 2020
Orbit: 960 x 997 km, 82.9° (Epoch: 19 February)

Event Time Altitude Azimuth Distance (km) Brightness Sun altitude
Rises 18:29:11 0° 350° (N) 3,663 7.1 -22.7°
Reaches altitude 10° 18:31:42 10° 349° (N) 2,709 6.4 -23.2°
Maximum altitude 18:37:52 75° 266° (W) 995 4.1 -24.3°
Drops below altitude 10° 18:44:00 10° 181° (S) 2,686 6.3 -25.5°
Sets 18:46:29 0° 180° (S) 3,629 7.0 -25.9°
